Shelton, WA

8:14 PM PDT on April 22, 2018 (GMT -0700)
Sanderson

Weather History for KSHN - October, 2012

Change the Weather History Date:

Tuesday, October 30, 2012

  Actual Average Record
Temperature  
Mean Temperature 54 °F -  
Max Temperature 57 °F 54 °F 67 °F (1949)
Min Temperature 51 °F 40 °F 21 °F (2002)
Degree Days  
Heating Degree Days 11    
Growing Degree Days 4 (Base 50)    
Moisture  
Dew Point 54 °F    
Average Humidity 99    
Maximum Humidity 100    
Minimum Humidity 94    
Precipitation  
Precipitation 1.91 in - - ()
Sea Level Pressure  
Sea Level Pressure 29.82 in    
Wind  
Wind Speed 1 mph (North)    
Max Wind Speed 6 mph    
Max Gust Speed -    
Visibility 3 miles    
Events Rain    
Averages and records for this station are not official NWS values.
T = Trace of Precipitation, MM = Missing Value Source: NWS Daily Summary

Daily Weather History Graph

Daily Weather History Graph

Search for Another Location

Airport or City:

Astronomy

Oct. 30, 2012 Rise Set
Actual Time 7:53 AM PDT 5:58 PM PDT
Civil Twilight 7:21 AM PDT 6:29 PM PDT
Nautical Twilight 6:45 AM PDT 7:05 PM PDT
Astronomical Twilight 6:10 AM PDT 7:41 PM PDT
Moon 6:25 PM PDT (10/30) 8:51 AM PDT (10/30)
Length of Visible Light 11h 08m
Length of Day
10h 04m
Full, 99% of the Moon is Illuminated
Oct 30
Full
Nov 6
Last Quarter
Nov 13
New
Nov 20
First Quarter
Nov 28
Full

Hourly Weather History & Observations

Time (PDT) Temp. Dew Point Humidity Pressure Visibility Wind Dir Wind Speed Gust Speed Precip Events Conditions
12:06 AM 53.6 °F 53.6 °F 100% 29.95 in 10.0 mi Calm Calm - N/A   Overcast
12:26 AM 53.6 °F 53.6 °F 100% 29.95 in 10.0 mi SSE 3.5 mph - 0.01 in Rain Light Rain
12:33 AM 53.6 °F 53.6 °F 100% 29.95 in 8.0 mi SSE 3.5 mph - 0.01 in Rain Light Rain
12:53 AM 53.1 °F 53.1 °F 100% 29.95 in 8.0 mi Calm Calm - 0.03 in Rain Light Rain
1:22 AM 53.6 °F 53.6 °F 100% 29.92 in 4.0 mi Calm Calm - 0.03 in Rain Light Rain
1:43 AM 53.6 °F 53.6 °F 100% 29.91 in 3.0 mi Calm Calm - 0.06 in Rain Light Rain
1:46 AM 53.6 °F 53.6 °F 100% 29.91 in 2.5 mi Calm Calm - 0.06 in Rain Light Rain
1:49 AM 53.6 °F 51.8 °F 94% 29.91 in 1.8 mi Calm Calm - 0.06 in Rain Light Rain
1:53 AM 53.1 °F 52.0 °F 96% 29.91 in 1.5 mi NW 3.5 mph - 0.06 in Rain Light Rain
2:01 AM 53.6 °F 53.6 °F 100% 29.91 in 3.0 mi Calm Calm - 0.00 in Rain Light Rain
2:46 AM 53.6 °F 51.8 °F 94% 29.89 in 0.8 mi Calm Calm - 0.02 in Rain Light Rain
2:53 AM 52.0 °F 52.0 °F 100% 29.89 in 1.2 mi Calm Calm - 0.02 in Rain Light Rain
2:58 AM 51.8 °F 51.8 °F 100% 29.89 in 3.0 mi Calm Calm - 0.00 in   Overcast
3:14 AM 51.8 °F 51.8 °F 100% 29.89 in 1.8 mi Calm Calm - 0.01 in Rain Light Rain
3:27 AM 53.6 °F 53.6 °F 100% 29.88 in 3.0 mi Calm Calm - N/A Rain Light Rain
3:36 AM 53.6 °F 53.6 °F 100% 29.88 in 2.0 mi Calm Calm - 0.02 in Rain Light Rain
3:48 AM 53.6 °F 53.6 °F 100% 29.87 in 1.2 mi Calm Calm - N/A Rain Rain
3:53 AM 53.1 °F 53.1 °F 100% 29.88 in 1.5 mi Calm Calm - 0.06 in Rain Light Rain
3:57 AM 53.6 °F 53.6 °F 100% 29.87 in 2.5 mi Calm Calm - 0.00 in Rain Light Rain
4:04 AM 53.6 °F 53.6 °F 100% 29.86 in 4.0 mi Calm Calm - 0.01 in Rain Light Rain
4:53 AM 53.1 °F 53.1 °F 100% 29.85 in 5.0 mi Calm Calm - 0.06 in Rain Light Rain
4:59 AM 53.6 °F 53.6 °F 100% 29.84 in 3.0 mi Calm Calm - 0.01 in Rain Rain
5:06 AM 53.6 °F 53.6 °F 100% 29.84 in 2.5 mi Calm Calm - 0.03 in Rain Light Rain
5:43 AM 53.6 °F 53.6 °F 100% 29.84 in 2.5 mi Calm Calm - 0.08 in Rain Light Rain
5:53 AM 53.1 °F 53.1 °F 100% 29.85 in 2.5 mi Calm Calm - 0.09 in Rain Light Rain
6:15 AM 53.6 °F 53.6 °F 100% 29.85 in 3.0 mi West 3.5 mph - 0.02 in Rain Light Rain
6:28 AM 53.6 °F 53.6 °F 100% 29.84 in 2.5 mi Calm Calm - 0.03 in Rain Light Rain
6:48 AM 53.6 °F 53.6 °F 100% 29.84 in 3.0 mi Calm Calm - 0.04 in   Overcast
6:53 AM 53.1 °F 53.1 °F 100% 29.84 in 2.0 mi Calm Calm - 0.05 in Rain Rain
7:25 AM 53.6 °F 53.6 °F 100% 29.83 in 1.8 mi Calm Calm - 0.02 in   Overcast
7:35 AM 53.6 °F 53.6 °F 100% 29.83 in 1.8 mi Calm Calm - 0.02 in   Overcast
7:44 AM 53.6 °F 53.6 °F 100% 29.83 in 2.0 mi Calm Calm - 0.03 in Rain Light Rain
7:49 AM 53.6 °F 53.6 °F 100% 29.83 in 3.0 mi Calm Calm - 0.03 in Rain Light Rain
7:53 AM 53.1 °F 53.1 °F 100% 29.83 in 4.0 mi Calm Calm - 0.03 in   Overcast
8:05 AM 53.6 °F 53.6 °F 100% 29.83 in 1.8 mi Calm Calm - 0.00 in Rain Light Rain
8:16 AM 53.6 °F 53.6 °F 100% 29.83 in 2.0 mi Calm Calm - 0.01 in Rain Light Rain
8:45 AM 53.6 °F 53.6 °F 100% 29.84 in 1.5 mi Calm Calm - 0.03 in Rain Light Rain
8:53 AM 54.0 °F 53.1 °F 97% 29.85 in 1.2 mi Calm Calm - 0.03 in Rain Light Rain
9:12 AM 53.6 °F 53.6 °F 100% 29.84 in 3.0 mi Calm Calm - 0.01 in Rain Light Rain
9:18 AM 53.6 °F 53.6 °F 100% 29.84 in 1.8 mi Calm Calm - 0.02 in Rain Light Rain
9:38 AM 53.6 °F 53.6 °F 100% 29.84 in 2.0 mi Calm Calm - 0.02 in   Overcast
9:45 AM 53.6 °F 53.6 °F 100% 29.84 in 1.2 mi Calm Calm - 0.03 in Rain Light Rain
9:53 AM 54.0 °F 53.1 °F 97% 29.84 in 1.2 mi Calm Calm - 0.03 in Rain Light Rain
10:38 AM 53.6 °F 53.6 °F 100% 29.84 in 3.0 mi Calm Calm - 0.02 in Rain Light Rain
10:53 AM 53.6 °F 53.6 °F 100% 29.84 in 4.0 mi NW 3.5 mph - N/A Rain Light Rain
11:16 AM 55.4 °F 53.6 °F 94% 29.83 in 6.0 mi Calm Calm - 0.03 in Rain Light Rain
11:53 AM 55.0 °F 55.0 °F 100% 29.83 in 6.0 mi Calm Calm - 0.05 in Rain Light Rain
12:01 PM 55.4 °F 55.4 °F 100% 29.83 in 10.0 mi Calm Calm - 0.01 in Rain Light Rain
12:35 PM 55.4 °F 55.4 °F 100% 29.82 in 5.0 mi Calm Calm - 0.06 in Rain Light Rain
12:53 PM 55.9 °F 55.9 °F 100% 29.81 in 4.0 mi Calm Calm - 0.09 in Rain Light Rain
1:10 PM 55.4 °F 55.4 °F 100% 29.81 in 1.8 mi Calm Calm - 0.05 in Rain Rain
1:24 PM 55.4 °F 55.4 °F 100% 29.80 in 1.2 mi Calm Calm - 0.12 in Rain Heavy Rain
1:35 PM 55.4 °F 55.4 °F 100% 29.79 in 2.0 mi NNE 3.5 mph - 0.18 in Rain Rain
1:53 PM 55.9 °F 55.9 °F 100% 29.78 in 3.0 mi NE 4.6 mph - 0.23 in Rain Light Rain
2:19 PM 55.4 °F 55.4 °F 100% 29.77 in 4.0 mi NE 3.5 mph - 0.06 in Rain Light Rain
2:38 PM 55.4 °F 55.4 °F 100% 29.77 in 2.5 mi Calm Calm - 0.09 in Rain Rain
2:49 PM 55.4 °F 55.4 °F 100% 29.77 in 3.0 mi Calm Calm - 0.12 in Rain Rain
2:50 PM 55.9 °F 55.0 °F 97% 29.77 in 3.0 mi Calm Calm - 0.12 in Rain Rain
2:58 PM 55.4 °F 55.4 °F 100% 29.77 in 2.5 mi NE 3.5 mph - 0.04 in Rain Rain
3:19 PM 55.4 °F 55.4 °F 100% 29.76 in 2.5 mi North 3.5 mph - 0.11 in Rain Rain
3:39 PM 55.4 °F 55.4 °F 100% 29.76 in 1.5 mi North 4.6 mph - 0.21 in Rain Heavy Rain
3:46 PM 55.4 °F 55.4 °F 100% 29.77 in 1.2 mi WNW 3.5 mph - 0.25 in Rain Rain
3:53 PM 55.9 °F 55.9 °F 100% 29.77 in 0.8 mi Calm Calm - 0.31 in Rain Heavy Rain
4:02 PM 55.4 °F 55.4 °F 100% 29.77 in 1.8 mi NW 4.6 mph - 0.04 in Rain Rain
4:09 PM 55.4 °F 55.4 °F 100% 29.77 in 2.5 mi Calm Calm - 0.06 in Rain Rain
4:28 PM 55.4 °F 55.4 °F 100% 29.76 in 4.0 mi Calm Calm - 0.11 in Rain Light Rain
4:53 PM 55.0 °F 55.0 °F 100% 29.76 in 5.0 mi North 4.6 mph - 0.15 in Rain Light Rain
5:02 PM 55.4 °F 53.6 °F 94% 29.75 in 5.0 mi Calm Calm - N/A Rain Light Rain
5:24 PM 55.4 °F 55.4 °F 100% 29.75 in 1.8 mi Calm Calm - 0.04 in Rain Rain
5:42 PM 55.4 °F 55.4 °F 100% 29.75 in 2.0 mi Calm Calm - 0.13 in Rain Rain
5:49 PM 55.4 °F 55.4 °F 100% 29.74 in 3.0 mi Calm Calm - 0.15 in Rain Rain
5:53 PM 55.0 °F 55.0 °F 100% 29.75 in 4.0 mi Calm Calm - 0.16 in Rain Light Rain
6:38 PM 55.4 °F 55.4 °F 100% 29.73 in 7.0 mi ESE 5.8 mph - 0.06 in Rain Light Rain
6:53 PM 55.0 °F 55.0 °F 100% 29.74 in 6.0 mi ESE 4.6 mph - 0.07 in Rain Light Rain
7:26 PM 55.4 °F 55.4 °F 100% 29.73 in 4.0 mi Calm Calm - 0.02 in Rain Light Rain
7:53 PM 55.9 °F 55.9 °F 100% 29.73 in 6.0 mi Calm Calm - 0.03 in Rain Light Rain
8:11 PM 55.4 °F 55.4 °F 100% 29.73 in 2.5 mi Calm Calm - 0.01 in Rain Light Rain
8:17 PM 55.4 °F 55.4 °F 100% 29.73 in 3.0 mi Calm Calm - N/A Rain Light Rain
8:34 PM 55.4 °F 55.4 °F 100% 29.73 in 7.0 mi Calm Calm - 0.01 in Rain Light Rain
8:53 PM 55.9 °F 55.9 °F 100% 29.73 in 4.0 mi Calm Calm - 0.03 in Rain Light Rain
9:53 PM 57.0 °F 55.9 °F 96% 29.73 in 6.0 mi Variable 3.5 mph - 0.09 in Rain Light Rain
10:53 PM 57.0 °F 55.9 °F 96% 29.74 in 7.0 mi SSW 4.6 mph - 0.07 in Rain Light Rain
11:53 PM 57.0 °F 55.9 °F 96% 29.73 in 7.0 mi Variable 3.5 mph - 0.05 in Rain Light Rain